Погода в Мельце

Польша     50°17′45″N   21°25′20″E
темп.,
°C
ветер,
м/с
пор.,
м/с
влажн.,
%
обл.,
%
осадки,
мм/ч
давл.,
гПа
погр.,
м
16 июня, ср
ср1623:00+16св1170100 0.0 101711
02:00+14сз007599 0.0 101811
05:00+13зюз117630 0.0 101811
08:00+19зсз11625 0.0 1018307
11:00+24ссз12525 0.0 10181269
14:00+25сз334818 0.0 10171910
17:00+24св236184 0.1 1017740
20:00+19св35865 1.3 101893
17 июня, чт
чт1723:00+16в36951 0.0 1020106
02:00+15в23962 0.0 102052
05:00+14в24973 0.0 102072
08:00+19в35810 0.0 1021432
11:00+24вюв44586 0.0 10211470
14:00+26вюв44461 0.0 10201815
17:00+25вюв45480 0.0 10201560
20:00+20в37750 0.0 1020150
18 июня, пт
пт1823:00+17вюв37880 0.0 1021132
02:00+16вюв38940 0.0 1021162
05:00+16в39930 0.0 1020186
08:00+22вюв510700 0.0 1020558
11:00+25вюв68552 0.0 10201111
14:00+27вюв67496 0.0 10191430
17:00+27вюв575332 0.0 10181304
20:00+23в510740 0.0 1018463
19 июня, сб
сб1923:00+19в412870 0.0 1019319
02:00+18в412930 0.0 1018314
05:00+18в412930 0.0 1018313
08:00+22вюв69730 0.0 1018547
11:00+26вюв68580 0.0 10171011
14:00+28вюв67530 0.0 10171253
17:00+26вюв67580 0.0 1016998
20:00+23вюв511740 0.0 1016514
20 июня, вс
вс2023:00+19вюв39910 0.0 1017237
02:00+17в37961 0.0 1016140
05:00+16в38976 0.0 1016174
08:00+21вюв46715 0.0 1016465
11:00+26вюв44550 0.0 10151072
14:00+29юв33480 0.0 10141817
17:00+28вюв435314 0.0 10131516
20:00+23вюв49730 0.0 1013297